• Em Portugal
  • Lista de países
  • Para 7 dias
  • Temperatura da água
  • Mapas de satélite
  • Mapa do tempo
  • Widgets de tempo
  • user-avatar
    Iniciar Sessão

    Previsão horária em Robertsport

    Hoje, 20 Agosto, Segunda-feira

    Tempo Temperatura Precipitação Vento Pressão Humidade
    00:00 +26°C° 0,8 mm 5 m/s 758 mmHg 95%
    01:00 +26°C° 0,8 mm 5 m/s 757 mmHg 94%
    02:00 +26°C° 0,8 mm 5 m/s 757 mmHg 94%
    03:00 +25°C° 0,9 mm 4 m/s 757 mmHg 94%
    04:00 +25°C° 0,9 mm 4 m/s 757 mmHg 95%
    05:00 +25°C° 0 mm 4 m/s 758 mmHg 95%
    06:00 +26°C° 0,8 mm 4 m/s 758 mmHg 93%
    07:00 +26°C° 0,8 mm 4 m/s 758 mmHg 92%
    08:00 +27°C° 0,8 mm 4 m/s 758 mmHg 91%
    09:00 +27°C° 0,8 mm 4 m/s 758 mmHg 90%
    10:00 +27°C° 0,8 mm 4 m/s 758 mmHg 89%
    11:00 +27°C° 0,8 mm 4 m/s 758 mmHg 88%
    12:00 +27°C° 0,8 mm 4 m/s 758 mmHg 88%
    13:00 +27°C° 0,8 mm 5 m/s 758 mmHg 87%
    14:00 +27°C° 0,8 mm 5 m/s 757 mmHg 87%
    15:00 +27°C° 1,1 mm 4 m/s 757 mmHg 88%
    16:00 +27°C° 1,1 mm 4 m/s 757 mmHg 90%
    17:00 +26°C° 1,1 mm 4 m/s 757 mmHg 91%
    18:00 +26°C° 0,8 mm 4 m/s 757 mmHg 92%
    19:00 +25°C° 0,8 mm 3 m/s 758 mmHg 94%
    20:00 +25°C° 0,8 mm 3 m/s 758 mmHg 95%
    21:00 +25°C° 0,9 mm 3 m/s 758 mmHg 95%
    22:00 +25°C° 0,9 mm 3 m/s 759 mmHg 96%
    23:00 +25°C° 0,9 mm 2 m/s 759 mmHg 96%

    Amanhã, 21 Agosto, Terça-feira

    Tempo Temperatura Precipitação Vento Pressão Humidade
    00:00 +25°C° 0,7 mm 2 m/s 758 mmHg 96%
    01:00 +25°C° 0,7 mm 2 m/s 758 mmHg 96%
    02:00 +25°C° 0,7 mm 3 m/s 758 mmHg 96%
    03:00 +24°C° 0,3 mm 2 m/s 757 mmHg 96%
    04:00 +24°C° 0,3 mm 2 m/s 757 mmHg 96%
    05:00 +24°C° 0,3 mm 2 m/s 757 mmHg 96%
    06:00 +25°C° 0,2 mm 2 m/s 758 mmHg 93%
    07:00 +26°C° 0,2 mm 2 m/s 758 mmHg 90%
    08:00 +27°C° 0,2 mm 2 m/s 759 mmHg 87%
    09:00 +27°C° 0,4 mm 2 m/s 759 mmHg 86%
    10:00 +28°C° 0,4 mm 3 m/s 759 mmHg 85%
    11:00 +28°C° 0,4 mm 3 m/s 759 mmHg 84%
    12:00 +28°C° 0,4 mm 3 m/s 758 mmHg 85%
    13:00 +28°C° 0,4 mm 3 m/s 758 mmHg 85%
    14:00 +28°C° 0,4 mm 3 m/s 757 mmHg 86%
    15:00 +27°C° 0,3 mm 3 m/s 757 mmHg 88%
    16:00 +27°C° 0,3 mm 3 m/s 757 mmHg 91%
    17:00 +26°C° 0,3 mm 2 m/s 757 mmHg 93%
    18:00 +26°C° 0,2 mm 3 m/s 757 mmHg 94%
    19:00 +26°C° 0,2 mm 3 m/s 757 mmHg 95%
    20:00 +25°C° 0,2 mm 3 m/s 758 mmHg 96%
    21:00 +25°C° 0,1 mm 3 m/s 758 mmHg 96%
    22:00 +25°C° 0,1 mm 3 m/s 758 mmHg 96%
    23:00 +25°C° 0,1 mm 3 m/s 758 mmHg 96%

    Depois de amanhã, 22 Agosto, Quarta-feira

    Tempo Temperatura Precipitação Vento Pressão Humidade
    00:00 +25°C° 0,1 mm 3 m/s 758 mmHg 96%
    01:00 +25°C° 0,1 mm 2 m/s 757 mmHg 96%
    02:00 +25°C° 0,1 mm 2 m/s 757 mmHg 96%
    03:00 +25°C° 0,3 mm 2 m/s 757 mmHg 96%
    04:00 +25°C° 0,3 mm 2 m/s 757 mmHg 96%
    05:00 +25°C° 0,3 mm 2 m/s 757 mmHg 97%
    06:00 +25°C° 0,2 mm 2 m/s 757 mmHg 95%
    07:00 +26°C° 0,2 mm 2 m/s 758 mmHg 93%
    08:00 +26°C° 0,2 mm 2 m/s 758 mmHg 91%
    09:00 +27°C° 0,6 mm 3 m/s 758 mmHg 88%
    10:00 +28°C° 0,6 mm 3 m/s 758 mmHg 85%
    11:00 +29°C° 0,6 mm 3 m/s 758 mmHg 82%
    12:00 +28°C° 1 mm 3 m/s 758 mmHg 85%
    13:00 +28°C° 1 mm 4 m/s 757 mmHg 87%
    14:00 +27°C° 1 mm 4 m/s 756 mmHg 89%
    15:00 +27°C° 0,5 mm 4 m/s 756 mmHg 90%
    16:00 +26°C° 0,5 mm 4 m/s 756 mmHg 91%
    17:00 +26°C° 0,5 mm 4 m/s 756 mmHg 93%
    18:00 +26°C° 0,3 mm 4 m/s 756 mmHg 94%
    19:00 +26°C° 0,3 mm 4 m/s 757 mmHg 95%
    20:00 +25°C° 0,3 mm 3 m/s 758 mmHg 96%
    21:00 +25°C° 1 mm 3 m/s 758 mmHg 96%
    22:00 +25°C° 1 mm 3 m/s 758 mmHg 96%
    23:00 +25°C° 1 mm 3 m/s 758 mmHg 95%

    23 Agosto, Quinta-feira

    Tempo Temperatura Precipitação Vento Pressão Humidade
    00:00 +25°C° 1,5 mm 3 m/s 758 mmHg 95%
    01:00 +25°C° 1,5 mm 3 m/s 757 mmHg 95%
    02:00 +25°C° 1,5 mm 3 m/s 756 mmHg 95%
    03:00 +25°C° 1,2 mm 3 m/s 756 mmHg 96%
    04:00 +25°C° 1,2 mm 3 m/s 756 mmHg 96%
    05:00 +25°C° 1,2 mm 3 m/s 756 mmHg 96%
    06:00 +25°C° 1 mm 3 m/s 757 mmHg 95%
    07:00 +26°C° 1 mm 3 m/s 757 mmHg 94%
    08:00 +26°C° 1 mm 3 m/s 758 mmHg 94%
    09:00 +26°C° 1,2 mm 3 m/s 758 mmHg 93%
    10:00 +26°C° 1,2 mm 4 m/s 757 mmHg 92%
    11:00 +27°C° 1,2 mm 4 m/s 757 mmHg 91%
    12:00 +26°C° 1,2 mm 4 m/s 757 mmHg 91%
    13:00 +26°C° 1,2 mm 4 m/s 756 mmHg 92%
    14:00 +26°C° 1,2 mm 4 m/s 755 mmHg 93%
    15:00 +26°C° 0,2 mm 4 m/s 755 mmHg 92%
    16:00 +26°C° 0,2 mm 4 m/s 755 mmHg 92%
    17:00 +26°C° 0,2 mm 4 m/s 755 mmHg 92%
    18:00 +26°C° 0,1 mm 4 m/s 756 mmHg 93%
    19:00 +25°C° 0,1 mm 3 m/s 757 mmHg 94%
    20:00 +25°C° 0,1 mm 3 m/s 757 mmHg 95%
    21:00 +25°C° 0,1 mm 3 m/s 757 mmHg 95%
    22:00 +25°C° 0,1 mm 3 m/s 757 mmHg 95%
    23:00 +25°C° 0,1 mm 3 m/s 758 mmHg 96%

    24 Agosto, Sexta-feira

    Tempo Temperatura Precipitação Vento Pressão Humidade
    00:00 +25°C° 0,2 mm 3 m/s 757 mmHg 96%
    01:00 +25°C° 0,2 mm 3 m/s 756 mmHg 96%
    02:00 +25°C° 0,2 mm 3 m/s 756 mmHg 96%
    03:00 +25°C° 0,5 mm 3 m/s 756 mmHg 95%
    04:00 +25°C° 0,5 mm 3 m/s 756 mmHg 95%
    05:00 +25°C° 0,5 mm 3 m/s 756 mmHg 95%
    06:00 +25°C° 0,7 mm 3 m/s 757 mmHg 94%
    07:00 +26°C° 0,7 mm 3 m/s 757 mmHg 94%
    08:00 +26°C° 0,7 mm 3 m/s 757 mmHg 93%
    09:00 +26°C° 0,5 mm 3 m/s 757 mmHg 92%
    10:00 +27°C° 0,5 mm 3 m/s 757 mmHg 90%
    11:00 +27°C° 0,5 mm 3 m/s 757 mmHg 89%
    12:00 +27°C° 0,5 mm 4 m/s 756 mmHg 88%
    13:00 +27°C° 0,5 mm 4 m/s 756 mmHg 88%
    14:00 +27°C° 0,5 mm 4 m/s 755 mmHg 87%
    15:00 +27°C° 0,3 mm 4 m/s 755 mmHg 88%
    16:00 +27°C° 0,3 mm 4 m/s 755 mmHg 89%
    17:00 +27°C° 0,3 mm 4 m/s 755 mmHg 90%
    18:00 +26°C° 0,2 mm 4 m/s 756 mmHg 92%
    19:00 +26°C° 0,2 mm 4 m/s 757 mmHg 93%
    20:00 +26°C° 0,2 mm 4 m/s 757 mmHg 94%
    21:00 +26°C° 0,2 mm 4 m/s 757 mmHg 94%
    22:00 +25°C° 0,2 mm 4 m/s 757 mmHg 94%
    23:00 +25°C° 0,2 mm 4 m/s 757 mmHg 94%

    25 Agosto, Sábado

    Tempo Temperatura Precipitação Vento Pressão Humidade
    00:00 +25°C° 0,2 mm 4 m/s 757 mmHg 94%
    01:00 +25°C° 0,2 mm 4 m/s 756 mmHg 95%
    02:00 +25°C° 0,2 mm 4 m/s 755 mmHg 95%
    03:00 +25°C° 0,3 mm 4 m/s 756 mmHg 95%
    04:00 +25°C° 0,3 mm 4 m/s 756 mmHg 95%
    05:00 +25°C° 0,3 mm 4 m/s 756 mmHg 95%
    06:00 +25°C° 0,4 mm 4 m/s 757 mmHg 94%
    07:00 +26°C° 0,4 mm 4 m/s 757 mmHg 93%
    08:00 +26°C° 0,4 mm 4 m/s 757 mmHg 92%
    09:00 +26°C° 0,8 mm 4 m/s 757 mmHg 92%
    10:00 +26°C° 0,8 mm 4 m/s 757 mmHg 92%
    11:00 +26°C° 0,8 mm 4 m/s 757 mmHg 92%
    12:00 +26°C° 0,6 mm 4 m/s 756 mmHg 92%
    13:00 +26°C° 0,6 mm 5 m/s 756 mmHg 93%
    14:00 +26°C° 0,6 mm 5 m/s 755 mmHg 93%
    15:00 +26°C° 0,4 mm 5 m/s 755 mmHg 93%
    16:00 +26°C° 0,4 mm 5 m/s 756 mmHg 93%
    17:00 +25°C° 0,4 mm 5 m/s 756 mmHg 93%
    18:00 +25°C° 0,2 mm 5 m/s 756 mmHg 93%
    19:00 +25°C° 0,2 mm 4 m/s 757 mmHg 94%
    20:00 +25°C° 0,2 mm 4 m/s 757 mmHg 94%
    21:00 +25°C° 0,2 mm 4 m/s 757 mmHg 94%
    22:00 +25°C° 0,2 mm 4 m/s 757 mmHg 94%
    23:00 +25°C° 0,2 mm 4 m/s 757 mmHg 94%
    Mostrar mais